This is the latest recevied weather packets stored in our database for station/object DL1SEW-6. If no packets are shown the sender has not sent any weather packets the latest 10 day(s).
| Time | Temp. | Humidity | Pressure | Rain* | Wind** | Luminosity | Snow |
|---|---|---|---|---|---|---|---|
| 1777934412 | 12.78° C | 75% | 1011.6 hPa | 0 mm | - | 0 W/m² | - |
| 1777933512 | 12.78° C | 74% | 1011.6 hPa | 0 mm | - | 0 W/m² | - |
| 1777932612 | 12.78° C | 74% | 1011.7 hPa | 0 mm | - | 0 W/m² | - |
| 1777931710 | 12.78° C | 74% | 1012.6 hPa | 0 mm | - | 0 W/m² | - |
| 1777930810 | 12.78° C | 73% | 1012.5 hPa | 0 mm | - | 0 W/m² | - |
| 1777929910 | 12.78° C | 72% | 1012.6 hPa | 0 mm | - | 0 W/m² | - |
| 1777929010 | 13.33° C | 72% | 1012.7 hPa | 0 mm | - | 0 W/m² | - |
| 1777928109 | 13.33° C | 70% | 1012.7 hPa | 0 mm | - | 0 W/m² | - |
| 1777927209 | 13.89° C | 70% | 1012.7 hPa | 0 mm | - | 0 W/m² | - |
| 1777926310 | 14.44° C | 68% | 1012.7 hPa | 0 mm | - | 0 W/m² | - |
| 1777925409 | 14.44° C | 67% | 1012.5 hPa | 0 mm | - | 0 W/m² | - |
| 1777924509 | 14.44° C | 66% | 1012.5 hPa | 0 mm | - | 0 W/m² | - |
| 1777923609 | 15° C | 64% | 1012.4 hPa | 0 mm | - | 0 W/m² | - |
| 1777922709 | 15.56° C | 64% | 1012.7 hPa | 0 mm | - | 0 W/m² | - |
| 1777921809 | 15.56° C | 64% | 1012.8 hPa | 0 mm | - | 0 W/m² | - |
| 1777920909 | 15.56° C | 64% | 1012.7 hPa | 0 mm | - | 0 W/m² | - |
| 1777920009 | 16.11° C | 62% | 1012.7 hPa | 0 mm | - | 0 W/m² | - |
| 1777919108 | 16.67° C | 60% | 1012.8 hPa | 0 mm | - | 9 W/m² | - |
| 1777918209 | 17.22° C | 54% | 1012.6 hPa | 0 mm | - | 18 W/m² | - |
| 1777917307 | 17.78° C | 52% | 1012.3 hPa | 0 mm | - | 33 W/m² | - |
| 1777916407 | 18.33° C | 51% | 1012.2 hPa | 0 mm | - | 46 W/m² | - |
| 1777915507 | 18.89° C | 49% | 1012 hPa | 0 mm | - | 46 W/m² | - |
| 1777914608 | 19.44° C | 46% | 1011.9 hPa | 0 mm | - | 90 W/m² | - |
| 1777913712 | 19.44° C | 44% | 1011.8 hPa | 0 mm | - | 147 W/m² | - |
| 1777912813 | 19.44° C | 44% | 1011.8 hPa | 0 mm | - | 115 W/m² | - |
* Rain latest hour (hover to see other rain measurements)
** Current wind speed in m/s (hover to see current wind gust speed)